When you browse on this site, cookies collect data to enhance your experience and personalize the content and advertising you see.
Visit our Privacy Policy to learn more. By continuing to use the site, you agree to this use of cookies and data.

Hourly Weather Zatyshne

Today, 15 July, Wednesday

Time Temperature Precipitation Wind Pressure Humidity
00:00 +14°C° 0 mm 4 mps 741 mmHg 85%
01:00 +13°C° 0 mm 4 mps 741 mmHg 86%
02:00 +13°C° 0 mm 5 mps 741 mmHg 84%
03:00 +13°C° 0 mm 5 mps 742 mmHg 82%
04:00 +14°C° 0 mm 5 mps 742 mmHg 81%
05:00 +14°C° 0 mm 5 mps 742 mmHg 79%
06:00 +16°C° 0 mm 5 mps 743 mmHg 73%
07:00 +17°C° 0 mm 5 mps 743 mmHg 66%
08:00 +20°C° 0 mm 5 mps 744 mmHg 60%
09:00 +21°C° 0 mm 5 mps 744 mmHg 55%
10:00 +22°C° 0 mm 5 mps 744 mmHg 51%
11:00 +25°C° 0 mm 5 mps 744 mmHg 47%
12:00 +25°C° 0 mm 5 mps 744 mmHg 45%
13:00 +25°C° 0 mm 5 mps 744 mmHg 43%
14:00 +26°C° 0 mm 5 mps 744 mmHg 41%
15:00 +26°C° 0 mm 4 mps 744 mmHg 43%
16:00 +25°C° 0 mm 4 mps 744 mmHg 45%
17:00 +25°C° 0 mm 4 mps 743 mmHg 46%
18:00 +22°C° 0 mm 3 mps 744 mmHg 52%
19:00 +20°C° 0 mm 2 mps 744 mmHg 57%
20:00 +18°C° 0 mm 2 mps 744 mmHg 62%
21:00 +18°C° 0 mm 2 mps 744 mmHg 64%
22:00 +18°C° 0 mm 2 mps 744 mmHg 65%
23:00 +17°C° 0 mm 2 mps 744 mmHg 67%

Tomorrow, 16 July, Thursday

Time Temperature Precipitation Wind Pressure Humidity
00:00 +18°C° 0 mm 1 mps 744 mmHg 67%
01:00 +16°C° 0 mm 1 mps 744 mmHg 67%
02:00 +16°C° 0 mm 1 mps 744 mmHg 67%
03:00 +16°C° 0 mm 1 mps 744 mmHg 67%
04:00 +18°C° 0 mm 1 mps 744 mmHg 67%
05:00 +16°C° 0 mm 0 mps 743 mmHg 67%
06:00 +20°C° 0 mm 1 mps 744 mmHg 60%
07:00 +22°C° 0 mm 1 mps 744 mmHg 54%
08:00 +24°C° 0 mm 1 mps 744 mmHg 47%
09:00 +25°C° 0 mm 1 mps 744 mmHg 44%
10:00 +26°C° 0 mm 1 mps 744 mmHg 40%
11:00 +27°C° 0 mm 1 mps 744 mmHg 37%
12:00 +28°C° 0 mm 1 mps 744 mmHg 36%
13:00 +28°C° 0 mm 1 mps 743 mmHg 36%
14:00 +28°C° 0 mm 1 mps 743 mmHg 35%
15:00 +27°C° 0 mm 1 mps 743 mmHg 38%
16:00 +27°C° 0 mm 2 mps 742 mmHg 41%
17:00 +27°C° 0 mm 2 mps 742 mmHg 43%
18:00 +25°C° 0 mm 2 mps 742 mmHg 47%
19:00 +24°C° 0 mm 2 mps 742 mmHg 50%
20:00 +21°C° 0 mm 3 mps 742 mmHg 53%
21:00 +21°C° 0 mm 3 mps 742 mmHg 54%
22:00 +20°C° 0 mm 3 mps 742 mmHg 55%
23:00 +20°C° 0 mm 3 mps 742 mmHg 56%

Day after tomorrow, 17 July, Friday

Time Temperature Precipitation Wind Pressure Humidity
00:00 +20°C° 0 mm 3 mps 742 mmHg 57%
01:00 +19°C° 0 mm 3 mps 742 mmHg 58%
02:00 +19°C° 0 mm 4 mps 742 mmHg 59%
03:00 +19°C° 0 mm 3 mps 742 mmHg 60%
04:00 +19°C° 0 mm 3 mps 741 mmHg 62%
05:00 +19°C° 0 mm 3 mps 741 mmHg 63%
06:00 +20°C° 0 mm 4 mps 742 mmHg 60%
07:00 +22°C° 0 mm 4 mps 742 mmHg 57%
08:00 +23°C° 0 mm 4 mps 742 mmHg 54%
09:00 +25°C° 0 mm 4 mps 742 mmHg 50%
10:00 +26°C° 0 mm 4 mps 742 mmHg 47%
11:00 +28°C° 0 mm 4 mps 742 mmHg 43%
12:00 +28°C° 0 mm 4 mps 742 mmHg 41%
13:00 +29°C° 0 mm 4 mps 742 mmHg 40%
14:00 +29°C° 0 mm 4 mps 742 mmHg 39%
15:00 +29°C° 0 mm 4 mps 742 mmHg 42%
16:00 +28°C° 0 mm 4 mps 742 mmHg 45%
17:00 +28°C° 0 mm 3 mps 742 mmHg 48%
18:00 +26°C° 0 mm 3 mps 742 mmHg 51%
19:00 +25°C° 0 mm 3 mps 742 mmHg 54%
20:00 +22°C° 0 mm 3 mps 742 mmHg 58%
21:00 +21°C° 0 mm 2 mps 742 mmHg 60%
22:00 +21°C° 0 mm 2 mps 742 mmHg 63%
23:00 +20°C° 0 mm 2 mps 743 mmHg 65%

18 July, Saturday

Time Temperature Precipitation Wind Pressure Humidity
00:00 +20°C° 0 mm 2 mps 743 mmHg 66%
01:00 +21°C° 0 mm 1 mps 743 mmHg 66%
02:00 +21°C° 0 mm 1 mps 743 mmHg 67%
03:00 +21°C° 0 mm 1 mps 743 mmHg 68%
04:00 +21°C° 0 mm 1 mps 743 mmHg 70%
05:00 +20°C° 0 mm 2 mps 744 mmHg 71%
06:00 +21°C° 0 mm 2 mps 744 mmHg 67%
07:00 +24°C° 0 mm 2 mps 744 mmHg 62%
08:00 +25°C° 0 mm 2 mps 744 mmHg 58%
09:00 +26°C° 0 mm 2 mps 744 mmHg 53%
10:00 +27°C° 0 mm 2 mps 744 mmHg 49%
11:00 +29°C° 0 mm 2 mps 744 mmHg 44%
12:00 +29°C° 0 mm 3 mps 744 mmHg 43%
13:00 +29°C° 0 mm 3 mps 744 mmHg 42%
14:00 +29°C° 0 mm 3 mps 744 mmHg 41%
15:00 +29°C° 0 mm 2 mps 744 mmHg 42%
16:00 +29°C° 0 mm 2 mps 744 mmHg 44%
17:00 +29°C° 0 mm 2 mps 744 mmHg 45%
18:00 +27°C° 0 mm 2 mps 744 mmHg 49%
19:00 +25°C° 0 mm 1 mps 745 mmHg 53%
20:00 +24°C° 0 mm 1 mps 745 mmHg 57%
21:00 +23°C° 0 mm 1 mps 745 mmHg 58%
22:00 +23°C° 0 mm 2 mps 745 mmHg 58%
23:00 +21°C° 0 mm 2 mps 745 mmHg 59%

19 July, Sunday

Time Temperature Precipitation Wind Pressure Humidity
00:00 +20°C° 0 mm 2 mps 745 mmHg 59%
01:00 +20°C° 0 mm 2 mps 745 mmHg 60%
02:00 +19°C° 0 mm 3 mps 745 mmHg 60%
03:00 +19°C° 0 mm 3 mps 745 mmHg 62%
04:00 +19°C° 0 mm 3 mps 744 mmHg 63%
05:00 +19°C° 0 mm 3 mps 744 mmHg 64%
06:00 +21°C° 0 mm 3 mps 744 mmHg 59%
07:00 +24°C° 0 mm 3 mps 744 mmHg 54%
08:00 +26°C° 0 mm 3 mps 744 mmHg 48%
09:00 +27°C° 0 mm 3 mps 744 mmHg 45%
10:00 +28°C° 0 mm 3 mps 744 mmHg 41%
11:00 +29°C° 0 mm 3 mps 744 mmHg 38%
12:00 +30°C° 0 mm 3 mps 744 mmHg 36%
13:00 +30°C° 0 mm 3 mps 743 mmHg 33%
14:00 +31°C° 0 mm 3 mps 743 mmHg 31%
15:00 +31°C° 0 mm 3 mps 743 mmHg 33%
16:00 +30°C° 0 mm 3 mps 742 mmHg 34%
17:00 +30°C° 0 mm 2 mps 742 mmHg 35%
18:00 +28°C° 0 mm 3 mps 742 mmHg 40%
19:00 +26°C° 0 mm 3 mps 742 mmHg 46%
20:00 +24°C° 0 mm 3 mps 742 mmHg 51%
21:00 +22°C° 0 mm 3 mps 742 mmHg 55%
22:00 +22°C° 0 mm 3 mps 742 mmHg 58%
23:00 +21°C° 0 mm 3 mps 742 mmHg 62%

20 July, Monday

Time Temperature Precipitation Wind Pressure Humidity
00:00 +20°C° 0 mm 3 mps 742 mmHg 61%
01:00 +20°C° 0 mm 3 mps 742 mmHg 61%
02:00 +19°C° 0 mm 3 mps 741 mmHg 60%
03:00 +19°C° 0 mm 3 mps 741 mmHg 61%
04:00 +19°C° 0 mm 3 mps 741 mmHg 61%
05:00 +19°C° 0 mm 3 mps 741 mmHg 62%
06:00 +21°C° 0 mm 3 mps 741 mmHg 57%
07:00 +25°C° 0 mm 3 mps 741 mmHg 52%
08:00 +27°C° 0 mm 3 mps 741 mmHg 47%
09:00 +28°C° 0 mm 3 mps 741 mmHg 43%
10:00 +29°C° 0 mm 3 mps 741 mmHg 39%
11:00 +30°C° 0 mm 2 mps 741 mmHg 35%
12:00 +30°C° 0 mm 2 mps 740 mmHg 35%
13:00 +30°C° 0 mm 2 mps 740 mmHg 36%
14:00 +30°C° 0 mm 2 mps 739 mmHg 36%
15:00 +30°C° 0 mm 2 mps 739 mmHg 37%
16:00 +30°C° 0 mm 2 mps 739 mmHg 37%
17:00 +30°C° 0 mm 2 mps 738 mmHg 37%
18:00 +28°C° 0 mm 3 mps 738 mmHg 42%
19:00 +26°C° 0 mm 3 mps 738 mmHg 47%
20:00 +24°C° 0 mm 3 mps 738 mmHg 52%
21:00 +24°C° 0 mm 3 mps 738 mmHg 53%
22:00 +24°C° 0 mm 3 mps 738 mmHg 54%
23:00 +22°C° 0 mm 3 mps 738 mmHg 54%
Show more